Location: De Greiden
(52.9496°N, 5.9137°E)
Time: 23:49:31
(UTC+00:00)

ATLAS 2AS CENTAUR R/B - Pass Details

Date: 24 January 2021
Orbit: 947 x 1265 km, 63.7° (Epoch: 13 February)

Event Time Altitude Azimuth Distance (km) Brightness Sun altitude
Rises 18:54:14 0° 283° (WNW) 4,219 7.1 -24.9°
Reaches altitude 10° 18:57:22 10° 291° (WNW) 3,235 6.1 -25.4°
Maximum altitude 19:04:32 37° 358° (N) 1,796 3.8 -26.4°
Enters shadow 19:06:55 31° 33° (NNE) 1,983 3.8 -26.8°
